Regional Weather Roundup
Issued by NWS Cleveland, OH

Home | Current Version | Previous Version | Graphics & Text | Print | Product List | Glossary On
Versions: 1 2 3 4 5 6 7 8 9 10 11 12 13 14 15 16 17 18 19 20 21 22 23 24 25 26 27 28 29 30 31 32 33 34 35 36 37 38 39 40 41 42 43 44 45 46 47 48 49 50
000
ASUS41 KCLE 180510
RWRCLE
OHIO REGIONAL WEATHER ROUNDUP
NATIONAL WEATHER SERVICE WILMINGTON, OH
100 AM EDT SAT APR 18 2015

NOTE: "FAIR" INDICATES FEW OR NO CLOUDS BELOW 12,000 FEET WITH NO
SIGNIFICANT WEATHER AND/OR OBSTRUCTIONS TO VISIBILITY.

OHZ001>008-015>018-024>027-034-035-043-044-180600-
   NORTHWEST OHIO

CITY           SKY/WX    TMP DP  RH WIND       PRES   REMARKS
DEFIANCE       CLEAR     55  45  68 CALM      30.02S
FINDLAY        CLEAR     57  41  55 SW5       30.02S
TOLEDO EXPRESS CLEAR     52  42  69 CALM      30.01S
TOLEDO EXEC    CLEAR     57  40  52 SW3       30.02S
LIMA           CLEAR     59  40  49 S7        30.04R
$$

OHZ009>014-019>023-028>033-038-089-180600-
   NORTHEAST OHIO

CITY           SKY/WX    TMP DP  RH WIND       PRES   REMARKS
CLE-HOPKINS    CLEAR     53  46  77 S8        30.04F
CLE-LAKEFRONT  CLEAR     59  47  64 SE10      30.01S
CUY CO. ARPT   NOT AVBL
LORAIN-ELYRIA  CLEAR     54  47  77 SW5       30.03S
ASHTABULA      FAIR      46  43  89 S3        30.04F
AKRON-CANTON   CLEAR     55  44  66 S5        30.05S
WOOSTER        CLEAR     50  45  83 CALM      30.05F
MANSFIELD      CLEAR     53  43  68 S3        30.05F
YOUNGSTOWN     CLEAR     50  46  86 CALM      30.04S
$$

OHZ042-051>053-060>062-070>072-077>081-180600-
  SOUTHWEST OHIO

CITY           SKY/WX    TMP DP  RH WIND       PRES   REMARKS
CINC-COVINGTON PTCLDY    61  48  62 CALM      30.03F
CINC-LUNKEN    PTCLDY    53  51  93 CALM      30.04F
HAMILTON       PTCLDY    52  47  83 CALM      30.05S
DAYTON         PTCLDY    59  42  53 CALM      30.05F
WRIGHT-PAT AFB CLEAR     53  48  83 N2        30.04F
DAYTON GENERAL FAIR      57  41  55 E5        30.03F
WILMINGTON     PTCLDY    54  46  74 CALM      30.05S
$$

OHZ036-037-039>041-045>050-054>059-063>069-073>076-082>088-180600-
  CENTRAL AND SOUTHEAST OHIO

CITY           SKY/WX    TMP DP  RH WIND       PRES   REMARKS
COLUMBUS       MOCLDY    58  43  57 CALM      30.04F
OSU AIRPORT    PTCLDY    54  43  66 CALM      30.05S
BOLTON FIELD   MOCLDY    53  46  79 CALM      30.05F
RICKENBACK AFB MOCLDY    53  45  74 E3        30.04F
NEWARK         FAIR      50  45  83 CALM      30.05S
MARION         PTCLDY    52  43  71 S7        30.05S
LANCASTER      MOCLDY    52  48  86 CALM      30.06S
ZANESVILLE     PTCLDY    53  46  77 CALM      30.05S
NEW PHILLY     PTCLDY    52  46  80 CALM      30.05F
$$


USA.gov is the U.S. government's official web portal to all federal, state and local government web resources and services.